Weather reports worldwide

Advertisment
San Clemente, Spain (8256): temperature & dewpoint: 06.12.2019 17:00:00 - 12.12.2019 17:00:00 (CET)San Clemente, Spain (8256): wind speed & gusts: 06.12.2019 17:00:00 - 12.12.2019 17:00:00 (CET)San Clemente, Spain (8256): wind direction: 06.12.2019 17:00:00 - 12.12.2019 17:00:00 (CET)San Clemente, Spain (8256): reduced air pressure: 06.12.2019 17:00:00 - 12.12.2019 17:00:00 (CET)San Clemente, Spain (8256): visibility: 06.12.2019 17:00:00 - 12.12.2019 17:00:00 (CET)San Clemente, Spain (8256): sunshine duration: 06.12.2019 17:00:00 - 12.12.2019 17:00:00 (CET)San Clemente, Spain (8256): precipitation: 06.12.2019 17:00:00 - 12.12.2019 17:00:00 (CET)
Date & Time tt [°C] td [°C] ff [km/h] ff [kn] fx [km/h] fx [kn] dd ppp [hPa] vv [km] sd [min] rr [mm]
12.12.2019 17:00:00 - - - - - - - - - - -
12.12.2019 16:00:00 6,6 5,5 31 17 55 30 NNW 1018,8 13 0 0,2
12.12.2019 15:00:00 7,5 4,5 40 22 53 28 NNW 1018,9 20 1 0,0
12.12.2019 14:00:00 6,9 4,1 29 16 41 22 NNW 1019,6 20 0 0,0
12.12.2019 13:00:00 6,2 3,4 28 15 41 22 N 1021,8 20 0 -
12.12.2019 12:00:00 5,8 2,9 26 14 40 21 NNW 1023,2 20 54 0,0
12.12.2019 11:00:00 4,2 2,5 28 15 38 21 N 1024,6 20 60 0,0
12.12.2019 10:00:00 2,1 1,5 22 12 29 16 N 1025,0 20 52 0,0
12.12.2019 09:00:00 0,8 0,4 16 8 27 15 N 1025,2 17 0 0,0
12.12.2019 08:00:00 1,1 1,1 19 10 27 15 N 1025,5 18 0 0,0
12.12.2019 07:00:00 2,1 1,9 24 13 31 17 N 1025,2 8 0 -
12.12.2019 06:00:00 2,5 2,3 12 6 18 10 N 1025,1 0,9 0 0,0
12.12.2019 05:00:00 2,2 2,1 13 7 19 10 NNE 1025,6 0,3 0 0,0
12.12.2019 04:00:00 1,7 1,5 12 6 21 11 NNE 1026,8 0,2 0 0,0
12.12.2019 03:00:00 1,0 0,6 16 9 24 13 N - - 0 0,0
12.12.2019 02:00:00 1,0 0,0 18 10 26 14 N 1027,1 17 0 0,0
12.12.2019 01:00:00 1,6 0,4 23 13 29 16 N 1027,4 20 0 -
12.12.2019 00:00:00 1,4 0,2 9 5 22 12 NNW 1027,7 20 0 0,0
11.12.2019 23:00:00 1,6 0,6 5 3 16 9 NW 1027,9 19 0 0,0
11.12.2019 22:00:00 2,3 2,1 7 4 19 10 N 1027,3 14 0 0,0
11.12.2019 21:00:00 2,8 2,3 13 7 18 10 N 1027,2 3,2 0 0,0
11.12.2019 20:00:00 3,3 2,7 8 5 18 10 WNW 1026,8 9 0 0,0
11.12.2019 19:00:00 3,7 2,7 14 7 31 17 N 1026,1 10 0 -
11.12.2019 18:00:00 5,4 3,4 23 12 34 19 NNE 1024,9 15 0 0,0
11.12.2019 17:00:00 7,0 4,1 22 12 40 21 NNE 1023,9 19 0 0,0
11.12.2019 16:00:00 7,2 5,0 23 12 34 19 N 1023,5 17 0 0,0
11.12.2019 15:00:00 6,7 4,3 24 13 37 20 N 1023,1 14 16 0,0
11.12.2019 14:00:00 6,6 3,8 27 15 37 20 N 1022,8 18 0 0,0
11.12.2019 13:00:00 6,4 3,4 25 14 36 19 N 1023,8 17 2 -
11.12.2019 12:00:00 6,4 3,8 27 15 37 20 N 1024,3 18 14 0,0
11.12.2019 11:00:00 4,5 3,0 15 8 24 13 N 1025,2 15 52 0,0
11.12.2019 10:00:00 2,8 2,5 13 7 19 11 N 1025,6 9 45 0,0
11.12.2019 09:00:00 -0,3 -0,5 10 5 15 8 N 1026,7 3,8 14 0,0
11.12.2019 08:00:00 -0,7 -0,7 6 3 9 5 N 1026,6 0,2 0 0,0
11.12.2019 07:00:00 -0,8 -1,0 1 1 10 6 ENE 1026,3 0,2 0 -
11.12.2019 06:00:00 -1,5 -1,8 6 3 9 5 ENE - - 0 0,0
11.12.2019 05:00:00 -1,1 -1,4 5 3 10 6 NNE 1027,4 0,2 0 0,0
11.12.2019 04:00:00 -1,6 -2,0 3 2 5 3 E 1027,8 7 0 0,0
11.12.2019 03:00:00 -1,2 -1,4 4 2 6 3 E 1028,3 0,5 0 0,0
11.12.2019 02:00:00 -0,5 -1,0 2 1 5 3 ENE 1028,4 0,3 0 0,0
11.12.2019 01:00:00 0,7 0,2 1 1 6 4 ESE 1028,4 0,2 0 -
11.12.2019 00:00:00 1,9 1,3 3 1 14 7 W 1028,5 3,5 0 0,0
10.12.2019 23:00:00 3,3 2,9 11 6 15 8 NNE 1028,0 7 0 0,0
10.12.2019 22:00:00 3,4 3,0 9 5 20 11 N 1028,2 9 0 0,0
10.12.2019 21:00:00 2,4 1,9 10 5 19 10 N 1028,7 8 0 0,0
10.12.2019 20:00:00 3,7 3,0 16 9 21 12 N 1028,5 10 0 0,0
10.12.2019 19:00:00 4,8 3,2 15 8 21 12 N 1027,9 14 0 -
10.12.2019 18:00:00 6,5 4,3 14 7 21 11 N 1027,0 14 0 0,0
10.12.2019 17:00:00 9,7 5,6 18 10 29 16 N 1026,1 16 0 0,0
10.12.2019 16:00:00 9,7 5,6 24 13 33 18 N 1026,4 19 21 0,0
10.12.2019 15:00:00 9,1 5,5 23 12 31 17 N 1027,0 19 60 0,0
10.12.2019 14:00:00 8,0 5,1 23 12 29 16 N 1028,1 20 60 0,0
10.12.2019 13:00:00 6,7 4,5 21 11 29 15 N 1029,0 20 60 -
10.12.2019 12:00:00 4,0 3,8 16 9 22 12 N 1031,0 13 59 0,0
10.12.2019 11:00:00 2,3 2,1 13 7 29 16 N 1032,5 3,6 26 0,0
10.12.2019 10:00:00 1,6 1,5 23 12 31 17 N 1032,0 0,6 0 0,0
10.12.2019 09:00:00 0,0 0,0 19 10 30 16 N 1032,5 0,3 0 0,0
10.12.2019 08:00:00 -0,6 -0,7 23 12 29 16 N 1032,8 0,6 0 0,0
10.12.2019 07:00:00 0,3 0,2 23 12 30 16 N 1032,4 0,4 0 -
10.12.2019 06:00:00 0,0 0,0 20 11 31 17 N 1032,4 0,4 0 0,0
10.12.2019 05:00:00 -0,1 -0,5 23 12 29 16 N 1032,9 0,3 0 0,0
10.12.2019 04:00:00 -0,8 -1,2 20 11 26 14 N 1032,8 0,5 0 0,0
10.12.2019 03:00:00 1,2 0,9 17 9 22 12 N 1032,4 14 0 0,0
10.12.2019 02:00:00 2,4 2,1 16 9 22 12 N 1032,3 6 0 0,0
10.12.2019 01:00:00 3,0 2,5 18 10 21 12 NNE 1032,7 11 0 -
10.12.2019 00:00:00 2,6 1,5 8 4 17 9 NNE 1033,0 10 0 0,0
09.12.2019 23:00:00 3,5 2,7 14 8 20 11 N 1032,3 17 0 0,0
09.12.2019 22:00:00 4,8 3,2 11 6 24 13 N 1032,1 18 0 0,0
09.12.2019 21:00:00 7,3 3,6 21 12 27 15 NE 1030,7 19 0 0,0
09.12.2019 20:00:00 6,3 5,1 6 3 23 12 N 1030,9 16 0 0,0
09.12.2019 19:00:00 7,7 6,1 17 9 23 12 NE 1029,7 18 0 -
09.12.2019 18:00:00 8,6 6,4 15 8 25 13 N 1028,7 18 0 0,0
09.12.2019 17:00:00 10,1 6,7 22 12 29 16 N 1027,8 20 0 0,0
09.12.2019 16:00:00 10,5 5,5 20 11 32 18 N 1028,0 18 20 0,0
09.12.2019 15:00:00 9,8 5,6 21 11 34 19 N 1028,2 19 59 0,0
09.12.2019 14:00:00 8,7 5,6 27 15 37 20 N 1028,8 16 38 0,0
09.12.2019 13:00:00 7,4 5,8 24 13 36 19 N 1030,0 14 1 -
09.12.2019 12:00:00 6,6 5,8 22 12 33 18 N 1031,0 11 0 0,0
09.12.2019 11:00:00 6,0 5,1 16 9 26 14 N 1031,5 12 0 0,0
09.12.2019 10:00:00 5,6 4,8 15 8 25 14 NNE 1031,3 12 0 0,0
09.12.2019 09:00:00 5,8 5,3 16 8 27 15 NE 1030,7 12 0 0,0
09.12.2019 08:00:00 6,0 5,6 11 6 22 12 NNE 1029,8 11 0 0,0
09.12.2019 07:00:00 6,1 5,8 9 5 19 11 N 1029,2 6 0 -
09.12.2019 06:00:00 6,3 5,9 10 5 24 13 NNE 1028,8 8 0 0,0
09.12.2019 05:00:00 6,5 6,4 11 6 22 12 N 1028,6 4,8 0 0,0
09.12.2019 04:00:00 7,0 6,8 16 9 28 15 NNE 1028,7 4,6 0 0,0
09.12.2019 03:00:00 7,3 7,1 18 10 28 15 N 1027,7 1,0 0 0,0
09.12.2019 02:00:00 7,4 7,1 17 9 26 14 N 1027,1 0,6 0 0,0
09.12.2019 01:00:00 7,3 7,0 14 7 21 11 NNW 1027,5 4,1 0 -
09.12.2019 00:00:00 7,3 7,1 10 6 16 9 NNW 1027,9 4,0 0 0,2
08.12.2019 23:00:00 7,1 7,0 12 7 20 11 N 1027,6 2,6 0 0,0
08.12.2019 22:00:00 7,0 6,7 14 7 21 12 N 1027,1 1,0 0 0,0
08.12.2019 21:00:00 6,9 6,5 11 6 21 11 N 1026,8 2,3 0 0,0
08.12.2019 20:00:00 6,8 6,5 14 7 21 11 N 1026,9 4,1 0 0,2
08.12.2019 19:00:00 6,9 6,4 11 6 21 11 N 1026,5 7 0 -
08.12.2019 18:00:00 7,0 6,5 17 9 22 12 N 1026,3 8 0 0,0
08.12.2019 17:00:00 7,6 7,0 15 8 26 14 N 1025,7 10 0 0,0
08.12.2019 16:00:00 7,2 6,8 20 11 26 14 N 1025,8 9 4 0,0
08.12.2019 15:00:00 6,7 6,5 16 9 23 13 N 1025,8 13 2 0,0
08.12.2019 14:00:00 5,5 5,3 10 6 19 11 N 1026,7 4,1 0 0,0
08.12.2019 13:00:00 5,1 5,0 12 7 19 10 N 1027,7 0,9 0 -
08.12.2019 12:00:00 4,6 4,5 11 6 19 10 N 1028,7 0,4 0 0,0
08.12.2019 11:00:00 4,1 3,9 11 6 20 11 N 1028,8 0,3 0 0,0
08.12.2019 10:00:00 3,7 3,6 16 9 22 12 N 1028,8 0,4 0 0,0
08.12.2019 09:00:00 3,9 3,8 13 7 21 12 N 1028,2 0,4 0 0,0
08.12.2019 08:00:00 4,2 4,1 12 6 22 12 N 1027,7 0,4 0 0,0
08.12.2019 07:00:00 4,2 4,1 13 7 23 13 N 1027,2 0,3 0 -
08.12.2019 06:00:00 4,1 3,9 12 6 19 10 N 1026,7 0,3 0 0,0
08.12.2019 05:00:00 4,0 3,8 13 7 19 11 N 1027,1 0,3 0 0,0
08.12.2019 04:00:00 4,0 3,8 11 6 21 11 N 1027,2 0,3 0 0,0
08.12.2019 03:00:00 4,0 3,8 14 8 19 10 N 1027,6 0,4 0 0,0
08.12.2019 02:00:00 4,5 4,3 11 6 18 10 NNW 1027,3 0,3 0 0,0
08.12.2019 01:00:00 4,8 4,6 12 6 18 10 N 1027,7 0,4 0 -
08.12.2019 00:00:00 5,0 4,6 10 5 20 11 N 1027,8 0,2 0 0,0
07.12.2019 23:00:00 5,2 5,0 13 7 27 14 N 1027,4 0,3 0 0,0
07.12.2019 22:00:00 5,6 5,3 21 11 28 15 N 1026,9 0,5 0 0,0
07.12.2019 21:00:00 5,4 5,0 17 9 21 11 N 1026,6 2,4 0 0,0
07.12.2019 20:00:00 6,1 5,6 16 8 17 9 N 1026,0 5 0 0,0
07.12.2019 19:00:00 7,7 7,0 15 8 17 9 NNW 1025,0 12 0 -
07.12.2019 18:00:00 9,3 7,4 13 7 17 9 NNW 1024,0 18 0 0,0
07.12.2019 17:00:00 11,8 8,1 13 7 17 9 N 1022,9 17 0 0,0
07.12.2019 16:00:00 12,5 7,4 6 4 11 6 NNW 1022,1 20 19 0,0
07.12.2019 15:00:00 11,9 7,4 5 3 9 5 N 1022,2 18 60 0,0
07.12.2019 14:00:00 11,4 7,0 3 1 8 5 NW 1022,8 15 60 0,0
07.12.2019 13:00:00 10,7 6,7 3 2 8 4 W 1023,9 20 60 -
07.12.2019 12:00:00 9,1 6,2 7 4 10 6 W 1025,2 19 60 0,0
07.12.2019 11:00:00 7,7 4,8 4 2 8 4 ESE 1025,9 20 60 0,0
07.12.2019 10:00:00 5,1 4,6 7 4 16 8 SSE 1026,0 20 60 0,0
07.12.2019 09:00:00 3,4 3,1 10 6 20 11 ESE - - 3 0,0
07.12.2019 08:00:00 4,4 4,1 9 5 19 10 ESE 1025,7 0,3 0 0,0
07.12.2019 07:00:00 4,0 3,8 9 5 22 12 ESE 1025,5 6 0 -
07.12.2019 06:00:00 3,2 2,9 9 5 12 7 ESE 1025,6 7 0 0,0
07.12.2019 05:00:00 3,8 3,4 5 3 14 7 S 1025,5 6 0 0,0
07.12.2019 04:00:00 5,1 4,6 7 4 14 8 ESE 1025,3 10 0 0,0
07.12.2019 03:00:00 4,7 4,3 10 5 13 7 ESE 1025,4 9 0 0,0
07.12.2019 02:00:00 4,9 4,5 9 5 15 8 SSE 1025,1 7 0 0,0
07.12.2019 01:00:00 5,8 5,5 10 5 - - ESE 1025,0 8 0 -
07.12.2019 00:00:00 4,4 3,6 5 3 13 7 S 1025,6 9 0 0,0
06.12.2019 23:00:00 5,3 4,5 8 4 14 8 S 1024,9 13 0 0,0
06.12.2019 22:00:00 6,1 5,0 11 6 17 9 SSE 1024,5 16 0 0,0
06.12.2019 21:00:00 7,1 5,5 10 5 17 9 SSE 1024,0 18 0 0,0
06.12.2019 20:00:00 8,5 6,1 10 6 - - S 1023,5 20 0 0,0
06.12.2019 19:00:00 9,7 6,1 14 8 21 11 S 1022,7 20 0 -
06.12.2019 18:00:00 9,7 7,0 13 7 22 12 S 1022,5 20 0 0,0
06.12.2019 17:00:00 10,2 6,8 15 8 23 12 SSE 1022,2 20 0 0,0

tt = temperature
td = dewpoint
ff = wind speed
fx = gusts
dd = wind direction
ppp = reduced air pressure
vv = visibility
sd = sunshine duration
rr = precipitation

Next stations